FICHTELBE Weather Reports


time (UTC)temp
F
wind
direction
speed
knots
gust
knots
rain 1hr
in
rain 24hr
in
rain mn
in
humidity
%
barometer
mb
20260506111640 50 240 13.0 0.0 0.00 0.00 0.00 81
20260506101840 48 250 18.2 24.3 0.00 0.00 0.00 87
20260506091639 46 250 17.4 22.6 0.00 0.00 0.00 93
20260506081639 45 250 17.4 22.6 0.00 0.00 0.00 99
20260506071639 45 260 19.1 26.9 0.00 0.00 0.00 99
20260506061640 45 250 18.2 24.3 0.00 0.00 0.00 99
20260506041839 45 260 22.6 28.7 0.00 0.00 0.00 93
20260506031640 45 260 20.9 26.9 0.00 0.00 0.00 93
20260506021639 45 260 20.0 26.1 0.00 0.00 0.00 93
20260506011740 45 250 20.0 26.9 0.00 0.00 0.00 93
20260506001639 45 250 14.8 21.7 0.00 0.00 0.00 93
20260505231639 45 260 13.9 0.0 0.00 0.00 0.00 93
20260505221638 45 260 11.3 0.0 0.00 0.00 0.00 99
20260505211656 45 310 10.4 0.0 0.00 0.00 0.00 99
20260505201655 45 260 24.3 33.9 0.00 0.00 0.00 99
20260505191656 50 70 12.2 0.0 0.00 0.00 0.00 93
20260505181639 50 60 8.7 14.8 0.00 0.00 0.00 93
20260505171639 50 30 12.2 0.0 0.00 0.00 0.00 99
20260505161739 50 20 11.3 0.0 0.00 0.00 0.00 99
20260505151638 52 30 8.7 0.0 0.00 0.00 0.00 93
20260505121639 57 360 8.7 0.0 0.00 0.00 0.00 71